This is the latest recevied weather packets stored in our database for station/object VE3VGJ. If no packets are shown the sender has not sent any weather packets the latest 10 day(s).
| Time | Temp. | Humidity | Pressure | Rain* | Wind** | Luminosity | Snow |
|---|---|---|---|---|---|---|---|
| 1778059174 | 6.11° C | 94% | 1009 hPa | 0 mm | - | 0 W/m² | - |
| 1778058873 | 6.11° C | 94% | 1008.7 hPa | 0 mm | - | 0 W/m² | - |
| 1778058570 | 6.11° C | 94% | 1009 hPa | 0 mm | - | 0 W/m² | - |
| 1778058267 | 6.11° C | 94% | 1009 hPa | 0 mm | - | 0 W/m² | - |
| 1778057963 | 6.11° C | 94% | 1008.9 hPa | 0 mm | - | 0 W/m² | - |
| 1778057660 | 6.11° C | 94% | 1009.2 hPa | 0 mm | - | 0 W/m² | - |
| 1778057357 | 6.11° C | 94% | 1009.3 hPa | 0 mm | - | 0 W/m² | - |
| 1778057054 | 6.11° C | 94% | 1009 hPa | 0 mm | - | 0 W/m² | - |
| 1778056750 | 6.11° C | 93% | 1008.8 hPa | 0 mm | - | 0 W/m² | - |
| 1778056447 | 6.11° C | 93% | 1009 hPa | 0 mm | - | 0 W/m² | - |
| 1778056145 | 6.11° C | 93% | 1009.2 hPa | 0 mm | - | 0 W/m² | - |
| 1778055841 | 6.11° C | 93% | 1009 hPa | 0 mm | - | 0 W/m² | - |
| 1778055537 | 6.11° C | 93% | 1009.1 hPa | 0 mm | - | 0 W/m² | - |
| 1778055235 | 6.11° C | 93% | 1008.7 hPa | 0 mm | - | 0 W/m² | - |
| 1778054933 | 6.11° C | 93% | 1008.8 hPa | 0 mm | - | 0 W/m² | - |
| 1778054629 | 6.11° C | 93% | 1008.5 hPa | 0 mm | - | 0 W/m² | - |
| 1778054327 | 6.11° C | 92% | 1008.4 hPa | 1.78 mm | - | 0 W/m² | - |
| 1778054024 | 6.11° C | 92% | 1008.4 hPa | 1.78 mm | - | 0 W/m² | - |
| 1778053721 | 6.11° C | 92% | 1008.5 hPa | 0 mm | - | 0 W/m² | - |
| 1778053418 | 6.11° C | 91% | 1008.6 hPa | 1.27 mm | - | 0 W/m² | - |
| 1778053116 | 6.11° C | 91% | 1008.6 hPa | 1.27 mm | - | 0 W/m² | - |
| 1778052813 | 6.67° C | 91% | 1008.7 hPa | 0 mm | - | 0 W/m² | - |
| 1778052510 | 6.67° C | 91% | 1008.7 hPa | 1.78 mm | - | 0 W/m² | - |
| 1778052208 | 6.67° C | 91% | 1008.7 hPa | 1.78 mm | - | 0 W/m² | - |
| 1778051906 | 6.67° C | 90% | 1008.7 hPa | 1.27 mm | - | 0 W/m² | - |
* Rain latest hour (hover to see other rain measurements)
** Current wind speed in m/s (hover to see current wind gust speed)